sat.trackr.live / text

‹ back to catalog

FENGYUN 3A

NORAD 32958 · 2008-026A

PAYLOAD ACTIVE UNKNOWN

§ Identity

Operator
Country
PRC
Launch date
2008-05-27
Launch site
TAISC
Launch vehicle
Mass (kg)
RCS (m²)
6.58

Purposes: earth_obs

External: N2YO · Heavens-Above · Gunter

§ Orbital elements

Epoch: 2026-09-13T01:56:15.594720Z

Period
101.44 min
Inclination
98.6930°
Eccentricity
0.0007746
Mean motion
14.19586489 rev/d
Perigee alt
821.2 km
Apogee alt
832.3 km
Semi-major
7,204.9 km
B*
4.4262e-5
RAAN
195.2849°
Arg perigee
230.9411°
Mean anomaly
129.1077°
Rev number
94,787

§ Raw data

FENGYUN 3A1 32958U 08026A   26256.08073605  .00000050  00000+0  44262-4 0  99992 32958  98.6930 195.2849 0007746 230.9411 129.1077 14.19586489947873

JSON: /api/v1/satellites/32958 · /tle

For live sub-satellite position, see the globe view (requires WebGL).

§ Visibility from observer

Set your observer location to see the next 7 days of passes ≥ 10°. The values pass through the URL so the page stays shareable.

No JS? Fill the form by hand. The geolocation button needs JavaScript.

§ Radio — SatNOGS DB

ModeDescriptionDownlinkUplink
AHRPT AHRPT 1704.5 GHz 1.705 GHz
AHRPT AHRPT Downlink 1.705 GHz
PSK MPT 7.775 GHz
QPSK Mode X 8.146 GHz
FM S-band telemetry 2.265 GHz

5 transmitters · refreshed weekly from db.satnogs.org